Temperature
7 6 5 6 7 8 8 8 8 8 8 8 7 7 7 7 7 7 7 7 7 8 8 8 8 8 8 8 8 8 8 8 8 8 8 8 8 8 8 7 7 7 7 7
5 5 6 7 7 7 7 7 7 7 7 7 6 6 6 6 6 7 7 7 7 7 7 7 7 8 8 8 7 7 7 7 7 7 7 7 7 7 7 7 7 7 7 7
6 6 7 7 7 7 7 6 6 6 7 7 6 6 6 6 6 7 7 7 7 7 7 7 7 7 7 7 7 7 7 7 7 7 7 7 7 7 7 7 7 7 6 6
5 6 7 7 6 7 6 7 7 6 5 5 6 5 5 5 6 5 6 7 7 7 7 7 7 7 7 7 7 6 6 6 6 6 6 6 6 6 6 6 6 6 6 6
5 6 6 6 6 6 6 6 6 6 5 4 4 4 4 5 5 5 5 6 7 7 7 7 6 6 6 6 6 6 6 6 6 6 6 6 5 5 6 5 5 5 5 5
5 6 6 6 6 6 6 5 5 3 3 4 4 4 4 4 5 5 5 6 6 6 6 6 6 6 6 5 5 5 5 5 5 5 5 5 5 5 5 5 5 5 5 5
5 5 5 6 6 5 5 4 3 3 2 3 4 4 4 4 4 5 5 5 6 6 6 6 5 5 5 5 5 5 5 5 5 4 4 4 4 4 4 4 4 4 4 4
4 4 4 5 5 4 4 4 3 4 3 3 3 3 4 4 4 5 5 6 6 6 6 5 5 5 5 5 4 4 4 4 4 4 4 4 3 3 3 3 3 3 3 3
3 4 4 4 5 5 4 3 3 2 2 2 3 2 3 4 4 3 4 4 5 5 5 5 5 5 5 4 4 4 4 3 3 3 3 3 3 3 3 3 3 3 3 2
3 3 3 4 4 4 4 3 2 2 3 3 3 3 3 4 4 3 3 3 4 5 5 4 4 4 4 4 4 3 3 3 3 3 3 2 2 2 2 2 2 2 2 2
3 2 2 2 2 2 3 3 2 1 1 2 3 3 3 4 3 3 3 4 4 5 4 4 4 4 4 3 3 3 3 2 2 2 2 2 2 2 2 2 2 2 2 2
2 1 1 1 1 2 2 2 2 2 1 1 1 2 3 3 3 3 3 4 4 4 4 4 4 3 3 3 3 2 2 2 2 2 2 2 2 1 1 1 1 1 1 1
1 1 1 2 1 1 1 1 1 0 0 -0 1 3 3 2 2 3 3 4 4 4 4 3 3 3 3 3 2 2 2 2 2 1 1 1 1 1 1 1 1 1 1 0
1 -0 1 2 2 0 -0 0 -0 0 0 -0 0 2 3 2 2 2 3 3 4 3 3 3 3 3 2 2 2 2 2 1 1 1 1 1 1 0 0 0 0 0 -0 -0
0 -0 -1 -0 0 -0 0 0 -0 -0 0 0 1 1 2 2 1 2 3 3 3 3 3 3 2 2 2 2 2 1 1 1 1 0 0 0 0 -0 -0 -0 -0 -0 -0 -0
-1 -1 -1 -1 -0 -0 -0 -0 -0 -0 -0 -0 0 0 1 2 2 2 2 3 2 3 3 2 2 2 2 2 1 1 1 0 0 0 -0 -0 -1 -1 -1 -1 -1 -1 -1 -1
-2 -2 -1 -1 -1 -0 0 -0 -1 -1 -1 -1 0 1 1 1 1 1 2 2 2 3 2 2 2 2 2 1 1 1 0 0 -0 -0 -0 -1 -1 -1 -1 -1 -1 -1 -1 -1
-2 -2 -2 -1 -1 0 1 -0 -1 -1 -1 -1 -1 -0 0 1 2 2 2 2 2 2 2 2 2 2 1 1 1 0 0 -0 -0 -0 -1 -1 -1 -1 -1 -1 -1 -1 -1 -2
-2 -2 -2 -2 -1 -1 0 -0 -1 -1 -0 -1 -1 -1 0 1 0 1 2 2 2 2 2 2 1 1 1 1 0 0 -0 -0 -0 -1 -1 -1 -1 -2 -2 -2 -2 -2 -2 -2
-3 -3 -2 -2 -1 -0 1 0 -0 -0 -0 -0 -1 -1 -1 -1 -1 -0 2 2 2 2 1 1 1 1 1 0 0 -0 -0 -0 -1 -1 -1 -2 -2 -2 -2 -2 -2 -2 -2 -2
-3 -3 -2 -2 -2 -1 -0 -0 -0 0 1 1 0 0 -0 -1 0 1 2 1 1 1 1 1 1 1 0 -0 -0 -0 -1 -1 -1 -1 -2 -2 -2 -2 -2 -3 -3 -3 -3 -3
-3 -3 -3 -3 -2 -1 -1 -1 -1 0 1 1 1 1 0 1 1 1 1 1 1 1 1 0 0 0 -0 -0 -1 -1 -1 -1 -1 -2 -2 -2 -2 -3 -3 -3 -3 -3 -3 -3
-4 -3 -3 -2 -1 -0 -0 0 1 2 1 2 2 1 1 1 0 0 0 0 0 0 0 -0 -0 -0 -0 -1 -1 -1 -1 -2 -2 -2 -2 -2 -3 -3 -3 -3 -3 -3 -4 -4
-4 -4 -4 -4 -3 -2 -0 1 1 1 1 1 1 1 1 0 0 0 0 -0 -0 -0 -0 -0 -1 -1 -1 -1 -1 -2 -2 -2 -2 -2 -2 -3 -3 -3 -3 -4 -4 -4 -4 -4
-3 -5 -4 -4 -3 -2 -0 1 1 1 1 1 1 1 0 0 -0 -0 -0 -0 -1 -1 -1 -1 -1 -1 -1 -2 -2 -2 -2 -2 -3 -3 -3 -3 -3 -3 -3 -4 -4 -4 -4 -5
-4 -4 -3 -2 -1 -2 -0 1 1 1 1 0 0 0 0 -0 -1 -1 -1 -1 -1 -1 -1 -1 -1 -2 -2 -2 -2 -2 -3 -3 -3 -3 -3 -3 -4 -4 -4 -4 -4 -4 -4 -5
Wind_Speed
2 3 3 6 6 3 3 4 4 4 2 2 5 7 7 4 4 5 5 5 5 5 4 3 3 4 4 4 4 3 3 2 3 2 2 1 1 0 1 2 2 2 2 2
3 3 5 3 3 2 2 2 3 2 1 1 4 7 7 5 6 6 7 6 6 4 3 3 4 4 4 4 3 4 3 3 3 2 1 1 1 1 0 0 1 1 1 1
5 4 3 3 2 3 3 4 4 3 3 2 2 6 4 3 2 3 3 4 4 6 6 5 5 4 4 4 4 4 3 3 2 2 2 2 2 1 1 1 1 1 1 1
2 3 1 2 3 4 4 3 3 2 0 3 1 3 5 3 3 3 4 4 5 5 5 5 5 5 5 5 4 3 3 2 2 3 3 3 2 1 2 2 1 2 2 2
2 2 2 3 3 3 4 1 1 1 2 2 1 3 7 2 5 6 5 5 5 5 6 6 6 6 5 4 4 4 3 2 2 2 3 3 2 1 1 1 1 2 2 2
2 1 1 3 1 3 2 4 4 4 3 3 5 5 6 5 7 5 5 5 5 4 5 5 4 5 4 3 3 3 3 2 2 2 2 3 2 1 1 1 2 2 2 2
2 2 1 1 2 1 3 4 2 3 2 6 2 4 8 6 5 6 6 5 4 4 5 4 4 4 4 4 4 4 4 2 2 2 2 2 3 3 3 2 2 2 2 2
4 4 3 2 3 4 4 6 6 5 5 5 2 6 7 5 3 3 3 3 2 3 4 5 5 5 5 5 4 4 4 3 2 2 2 1 2 2 2 3 3 3 3 3
6 4 1 1 1 4 4 4 4 5 1 2 5 6 6 2 1 1 2 2 3 3 4 4 4 4 4 5 4 5 4 3 2 2 1 1 2 2 2 3 2 2 3 3
5 3 2 1 2 1 3 5 4 4 4 4 5 5 5 5 6 4 3 3 4 3 3 2 3 4 4 4 3 3 3 3 2 2 2 2 2 2 2 2 3 3 3 3
3 4 1 1 4 6 3 3 4 4 4 5 4 7 5 7 7 7 7 6 5 5 4 3 3 3 2 2 2 2 2 2 2 2 2 2 2 2 2 3 3 4 3 3
3 4 2 4 3 2 4 5 6 5 5 4 4 7 4 4 4 5 5 4 4 4 3 3 3 2 2 2 2 2 2 2 3 2 2 2 2 2 2 3 3 4 4 3
5 5 1 3 3 1 2 3 4 4 4 5 5 7 2 0 1 2 3 3 3 3 3 2 2 2 3 3 3 3 3 3 3 2 2 2 2 3 3 3 3 3 4 4
4 4 6 8 6 5 5 5 6 6 5 6 9 9 6 4 4 4 4 4 3 4 3 3 3 3 3 3 3 3 3 3 2 2 2 3 3 3 3 3 3 3 3 4
4 4 4 5 4 3 5 8 9 11 10 10 9 10 11 8 7 6 5 4 4 4 4 4 4 4 4 3 3 3 3 3 3 2 3 3 3 3 3 3 3 3 4 4
3 3 2 3 4 4 7 10 11 11 10 11 9 12 10 6 4 6 6 6 6 6 6 6 5 5 5 5 4 4 3 3 3 3 4 3 3 3 3 3 3 3 3 3
3 4 2 3 3 3 9 12 12 8 9 10 14 13 5 5 6 7 7 7 7 7 7 6 6 6 6 6 5 5 4 3 3 3 3 3 3 3 3 3 3 3 3 3
6 5 3 1 1 7 8 4 8 9 10 11 9 7 7 9 7 6 6 7 7 7 6 6 6 6 5 5 5 4 3 3 3 4 4 3 3 3 3 3 3 4 3 3
4 6 3 3 4 8 8 3 5 7 8 9 11 10 8 4 3 6 6 6 7 7 6 6 6 6 5 5 5 4 3 3 4 4 4 4 3 3 3 3 3 3 3 4
2 4 4 4 4 7 6 3 3 3 6 6 8 9 7 3 3 6 4 4 5 5 4 4 4 3 4 4 4 4 4 4 5 5 4 4 3 4 4 4 3 3 3 4
3 3 5 6 6 8 6 3 5 4 6 3 5 6 5 6 8 5 3 3 4 4 4 4 3 4 4 4 4 4 5 6 5 4 3 3 3 4 3 3 2 2 3 3
8 6 6 5 6 8 4 6 7 7 2 2 3 4 5 6 5 5 4 4 3 3 3 3 3 4 3 3 4 4 5 4 3 3 3 3 3 3 2 2 2 2 2 3
7 8 6 8 8 5 5 6 5 3 3 4 3 4 4 4 5 5 4 4 4 4 3 3 3 3 3 3 4 5 4 3 2 3 3 3 2 2 2 2 2 2 2 2
5 3 4 5 8 7 6 5 5 4 5 5 4 4 4 5 5 5 5 4 4 4 3 3 2 3 3 3 3 4 3 3 3 3 3 2 2 1 1 2 2 2 2 2
6 6 4 6 7 6 6 7 8 6 5 5 5 5 5 5 5 5 5 5 4 4 3 3 3 4 4 3 2 2 2 2 2 3 2 2 2 1 1 2 2 3 3 3
6 7 8 8 7 6 7 6 5 6 6 6 5 5 5 5 6 6 5 5 4 4 3 3 3 4 3 2 2 2 2 2 3 2 2 2 2 1 1 1 2 3 3 5
Wind_Direction
87 95 198 213 201 196 173 183 225 249 264 213 228 251 260 244 214 218 212 208 205 206 207 177 166 148 137 134 136 138 132 136 128 127 125 120 118 77 56 54 48 33 31 40
69 240 236 215 198 201 187 213 247 292 314 252 258 268 265 243 222 214 210 210 209 203 192 175 163 149 145 150 149 146 148 146 146 158 171 171 169 189 187 34 4 359 21 17
176 235 218 178 187 195 232 211 216 232 335 349 318 303 277 269 225 211 199 195 195 189 191 183 172 167 161 165 170 167 165 154 146 120 103 79 57 43 22 310 283 315 311 325
219 280 144 170 206 182 227 233 203 195 125 279 142 279 276 254 255 231 222 209 202 199 189 180 175 173 177 182 174 167 167 155 156 138 136 137 146 207 244 243 243 296 300 293
225 239 193 204 214 171 198 203 154 164 164 297 246 212 275 260 242 243 234 225 217 204 186 180 181 182 182 174 170 171 166 163 161 158 162 164 180 224 267 284 266 278 300 294
226 279 188 200 216 166 138 64 45 47 76 263 230 195 266 232 222 226 228 231 223 203 191 186 178 163 164 162 162 163 166 174 169 165 177 179 189 215 258 289 269 274 283 296
293 299 318 88 110 55 95 102 46 358 336 250 234 208 251 249 229 209 214 223 218 192 182 178 165 162 167 169 171 171 169 182 187 180 196 202 203 205 219 248 254 265 276 282
185 256 235 205 179 181 180 152 165 196 223 270 280 230 256 266 252 215 198 189 178 177 184 186 183 179 181 180 176 175 179 186 191 192 222 230 226 220 231 243 251 250 255 263
182 230 283 223 170 148 159 190 168 143 162 263 264 278 295 247 243 184 166 157 186 189 183 186 186 183 184 183 186 185 182 190 203 209 232 243 241 244 245 249 251 253 261 271
162 202 277 320 78 56 155 151 122 149 178 242 273 262 244 232 222 216 207 208 216 205 199 194 188 186 189 189 185 180 181 192 206 211 226 252 252 255 251 249 260 262 261 266
146 161 285 358 195 194 163 164 159 157 173 183 247 263 231 220 210 203 210 212 212 208 205 207 203 194 189 176 172 179 187 193 211 224 236 252 265 270 265 260 261 261 264 265
158 139 216 251 266 252 204 190 165 173 221 198 208 266 273 224 209 196 211 223 223 216 209 206 194 182 185 192 197 202 207 211 222 227 236 250 263 271 268 270 271 274 263 262
149 134 105 331 313 306 231 209 183 158 152 184 201 256 291 285 255 223 216 228 231 225 220 207 194 200 213 217 216 217 220 224 229 227 233 250 261 261 262 268 273 277 266 264
129 152 186 206 219 192 216 221 193 171 195 218 225 243 266 267 264 264 249 241 237 232 225 217 225 229 227 224 221 220 226 223 225 226 233 245 252 254 259 267 273 273 270 266
124 189 220 247 254 212 222 224 207 207 211 215 235 235 251 243 237 246 248 246 241 238 234 230 232 235 232 234 235 228 229 226 221 220 235 247 257 261 265 273 275 276 270 271
133 172 192 273 262 244 255 243 224 224 225 233 251 261 255 248 237 248 247 239 238 241 239 238 237 235 231 231 234 233 233 236 226 228 240 249 258 266 269 273 275 279 278 273
159 153 167 251 282 309 265 234 214 213 214 205 231 245 246 247 245 242 241 233 233 238 241 238 234 231 231 230 227 225 228 234 229 234 241 244 249 261 269 278 284 276 275 271
158 157 169 204 71 244 249 226 198 214 236 220 232 247 238 240 250 255 233 223 234 237 238 241 239 239 236 230 227 224 223 222 227 234 237 243 245 257 270 276 275 275 276 278
172 160 165 175 231 271 286 239 182 198 252 224 227 244 248 254 296 277 241 215 223 230 234 235 232 233 232 229 219 212 222 224 227 232 236 241 240 250 264 270 275 280 281 287
98 147 166 181 212 243 251 231 177 132 274 239 212 232 235 192 249 264 246 234 244 250 245 239 233 230 227 227 206 202 221 224 231 236 239 239 236 242 253 262 276 284 281 283
169 179 196 207 231 260 252 200 129 178 247 244 203 218 205 204 226 252 266 258 252 255 254 238 225 226 228 218 198 210 222 232 239 241 242 240 240 241 246 257 271 279 288 298
182 182 196 184 216 249 210 146 185 220 240 214 213 211 213 233 256 264 264 263 264 266 264 237 229 241 237 209 198 218 233 240 237 231 233 240 244 245 250 247 272 280 283 296
201 196 190 198 220 256 201 205 230 215 222 229 224 228 219 237 253 258 257 258 262 259 252 241 230 245 247 224 206 220 239 227 219 224 232 242 249 246 240 235 257 279 277 281
243 202 192 242 257 259 253 254 260 234 234 244 229 226 220 234 247 256 257 257 259 257 250 237 224 238 250 246 239 227 229 210 201 219 234 236 231 250 257 252 244 252 264 273
213 180 205 248 267 285 267 242 243 251 255 256 247 234 227 229 245 246 250 252 252 256 251 231 226 236 247 249 246 239 220 193 202 218 221 225 222 225 261 275 264 261 259 260
200 191 199 233 229 219 253 247 239 242 250 245 238 249 244 228 239 246 247 246 246 247 243 241 237 238 244 240 247 241 215 193 192 207 211 212 215 226 239 275 308 297 286 297
Height
1499 1504 1506 1504 1503 1503 1503 1505 1506 1504 1502 1503 1504 1503 1500 1500 1500 1500 1500 1500 1501 1502 1503 1504 1505 1506 1507 1508 1509 1510 1511 1512 1513 1514 1514 1514 1515 1516 1516 1516 1517 1517 1516 1516
1503 1505 1501 1501 1501 1502 1504 1506 1507 1505 1503 1504 1504 1502 1499 1497 1497 1496 1497 1497 1498 1499 1500 1501 1502 1503 1504 1505 1506 1508 1509 1510 1511 1511 1512 1512 1513 1513 1514 1514 1514 1514 1514 1513
1502 1501 1498 1500 1502 1503 1505 1507 1506 1507 1505 1504 1505 1504 1499 1496 1495 1494 1494 1495 1496 1496 1497 1498 1499 1500 1501 1503 1504 1505 1506 1507 1508 1509 1509 1510 1510 1511 1511 1511 1511 1511 1511 1511
1501 1499 1498 1500 1501 1502 1505 1503 1504 1505 1509 1512 1509 1512 1500 1496 1495 1493 1492 1492 1493 1494 1495 1496 1497 1498 1499 1500 1502 1503 1504 1505 1506 1506 1506 1506 1507 1507 1507 1507 1508 1508 1508 1507
1501 1498 1498 1500 1500 1500 1503 1502 1504 1505 1510 1514 1511 1514 1503 1497 1495 1492 1490 1490 1490 1491 1492 1493 1495 1496 1497 1498 1499 1500 1501 1502 1503 1503 1503 1504 1504 1504 1504 1504 1504 1504 1504 1504
1499 1498 1498 1498 1498 1499 1501 1504 1507 1511 1516 1517 1510 1513 1504 1497 1490 1488 1488 1487 1487 1489 1490 1491 1493 1494 1495 1496 1497 1498 1499 1499 1500 1501 1501 1501 1501 1501 1500 1500 1500 1500 1500 1500
1501 1499 1497 1497 1499 1500 1503 1511 1519 1521 1524 1516 1507 1508 1500 1488 1485 1485 1485 1485 1485 1486 1487 1489 1490 1491 1492 1493 1494 1494 1495 1496 1497 1498 1498 1498 1497 1497 1497 1497 1497 1496 1496 1496
1503 1503 1498 1497 1498 1501 1503 1507 1517 1520 1520 1514 1508 1506 1494 1485 1483 1482 1483 1483 1484 1485 1486 1487 1487 1488 1489 1490 1491 1491 1492 1493 1494 1494 1494 1494 1494 1494 1494 1494 1494 1493 1493 1492
1502 1501 1497 1496 1496 1498 1502 1506 1507 1516 1520 1518 1509 1503 1491 1484 1483 1482 1482 1482 1483 1483 1484 1484 1485 1486 1487 1488 1488 1489 1489 1490 1490 1491 1491 1491 1491 1491 1490 1490 1490 1490 1489 1488
1497 1502 1498 1497 1497 1498 1500 1503 1510 1514 1516 1513 1507 1503 1493 1484 1482 1482 1482 1481 1481 1482 1482 1483 1483 1484 1485 1486 1486 1486 1487 1487 1487 1488 1488 1488 1488 1488 1487 1487 1486 1486 1485 1484
1495 1502 1502 1500 1500 1500 1501 1503 1505 1511 1513 1514 1510 1498 1482 1480 1479 1479 1479 1479 1479 1480 1480 1481 1482 1482 1483 1483 1483 1484 1484 1484 1484 1484 1484 1484 1484 1484 1483 1483 1482 1482 1481 1480
1494 1501 1505 1502 1500 1498 1498 1498 1503 1507 1510 1512 1512 1498 1477 1477 1476 1477 1477 1478 1478 1479 1479 1479 1480 1480 1481 1481 1481 1481 1481 1481 1481 1481 1481 1481 1480 1480 1479 1479 1478 1477 1476 1476
1492 1500 1505 1502 1504 1502 1500 1498 1500 1504 1507 1512 1509 1493 1477 1476 1475 1475 1476 1476 1476 1477 1477 1477 1478 1478 1478 1478 1478 1478 1478 1478 1478 1478 1477 1477 1476 1476 1475 1475 1474 1473 1472 1471
1488 1496 1498 1496 1493 1495 1498 1497 1498 1501 1503 1504 1497 1486 1479 1477 1476 1475 1475 1474 1474 1475 1475 1475 1475 1475 1475 1475 1475 1475 1475 1475 1474 1474 1474 1473 1473 1472 1472 1471 1470 1469 1468 1467
1488 1494 1495 1494 1492 1493 1492 1492 1494 1495 1492 1493 1486 1484 1475 1474 1474 1473 1473 1473 1472 1472 1472 1472 1472 1472 1472 1472 1472 1471 1471 1471 1471 1470 1470 1470 1469 1469 1468 1467 1466 1465 1464 1462
1488 1493 1495 1494 1491 1491 1490 1487 1488 1488 1487 1486 1483 1479 1470 1470 1471 1470 1469 1469 1469 1468 1469 1469 1469 1469 1468 1468 1468 1468 1468 1467 1467 1466 1466 1466 1465 1465 1464 1463 1462 1461 1460 1458
1489 1492 1494 1493 1493 1490 1486 1477 1479 1480 1478 1479 1477 1469 1468 1468 1467 1466 1465 1465 1465 1465 1465 1465 1465 1465 1464 1464 1464 1464 1464 1464 1463 1463 1462 1462 1461 1460 1460 1459 1458 1457 1456 1454
1487 1491 1495 1495 1495 1490 1472 1468 1469 1471 1470 1470 1467 1464 1464 1463 1462 1462 1461 1462 1461 1461 1461 1461 1461 1461 1461 1461 1460 1460 1460 1460 1459 1459 1458 1458 1457 1457 1456 1455 1454 1453 1452 1450
1482 1487 1492 1494 1493 1482 1470 1466 1467 1469 1465 1461 1462 1460 1460 1460 1460 1458 1457 1457 1457 1458 1457 1457 1457 1457 1457 1456 1456 1456 1455 1455 1455 1454 1454 1454 1454 1453 1452 1451 1450 1449 1448 1447
1483 1484 1490 1492 1488 1480 1465 1461 1460 1465 1464 1455 1455 1455 1456 1458 1461 1455 1454 1454 1454 1454 1453 1453 1453 1453 1452 1452 1452 1451 1451 1451 1450 1451 1450 1451 1450 1450 1449 1448 1447 1446 1445 1443
1484 1485 1486 1487 1485 1472 1461 1459 1461 1467 1459 1452 1451 1451 1452 1453 1453 1451 1450 1450 1450 1449 1449 1449 1448 1448 1448 1448 1447 1447 1447 1447 1447 1447 1447 1447 1447 1446 1446 1445 1444 1443 1441 1440
1478 1481 1483 1484 1481 1469 1456 1457 1459 1454 1450 1449 1448 1449 1449 1448 1448 1448 1447 1446 1446 1445 1445 1444 1444 1444 1444 1444 1443 1443 1443 1443 1443 1443 1443 1443 1443 1443 1442 1441 1440 1439 1438 1437
1471 1468 1468 1468 1462 1453 1451 1450 1449 1448 1448 1447 1446 1446 1446 1445 1445 1444 1443 1443 1442 1442 1441 1441 1440 1440 1440 1440 1440 1439 1439 1440 1440 1440 1440 1440 1440 1439 1439 1438 1437 1436 1435 1434
1464 1462 1463 1462 1453 1450 1448 1447 1446 1446 1445 1445 1444 1444 1443 1442 1442 1441 1440 1440 1439 1438 1438 1437 1437 1436 1436 1436 1436 1436 1436 1437 1437 1437 1437 1436 1436 1436 1435 1435 1434 1433 1432 1431
1455 1458 1458 1456 1449 1446 1443 1443 1442 1442 1442 1441 1441 1441 1440 1439 1438 1437 1436 1436 1435 1435 1434 1434 1434 1433 1433 1433 1433 1433 1433 1434 1433 1433 1433 1433 1433 1433 1432 1432 1431 1430 1430 1429
1448 1449 1451 1446 1442 1442 1439 1438 1439 1439 1438 1438 1437 1437 1436 1436 1434 1433 1433 1432 1432 1431 1431 1431 1430 1430 1430 1430 1430 1430 1430 1430 1430 1430 1430 1430 1430 1430 1429 1429 1428 1428 1427 1426